Portada
METAR-TAF:

METAR-TAF

Aeropuertos :

Helipuerto de Algeciras

Algeciras, España

latitud: 36-07-44N, longitud: 05-26-28W, altitud: 30 m

Observación

El informe se hizo hace 30 minutos, a las 23:00 UTC
Viento 10 kt del este
Temperatura 24°C
Humedad 78%
Presión 1016 hPa
Visibilidad 10 km o más
Escasas nubes a una altura de 2700 ft

METAR: LEAG 212300Z AUTO 08010KT 9999 FEW027 24/20 Q1016

Hora: 01:30 (23:30 UTC)


TAF: falta

Observaciones y pronósticos meteorológicos de más de 4000 aeropuertos (mensajes METAR y TAF).

Los puntos amarillos y rojos representan las estaciones disponibles.

Ponga el ratón en el punto deseado para ver el nombre de la estación.

Haga clic para ver las observaciones y los pronósticos meteorológicos.

Para cambiar el mapa : haga clic en los botones verdes con una cruz de color negro para hacer un zoom, en el botón verde con un guión para alejar o en las flechas verdes para mapas adyacentes.


METAR-TAF: